Flag for Israel Weather past 2 weeks in Bat Yam, Israel

Now
77 °F

Scattered clouds.


Feels Like: 79 °F
Forecast: 69 / 76 °F
Wind: 13 mph from Southwest

Location: Dov Airport

Current Time: May 29, 2015 at 1:29:53 PM

Latest Report: May 29, 2015 at 12:50 PM


Visibility: N/A

Pressure: 29.83 "Hg

Humidity: 57%

Dew point: 61 °F

Location of Bat YamLocation

Historic Weather in Bat Yam — Graph

°F

Bat Yam temperature yesterday

Maximum temperature yesterday: 79 °F (at 9:50 AM)
Minimum temperature yesterday: 73 °F (at 8:50 PM)
Average temperature yesterday: 77 °F

Past Weeks' High & Low Weather Summary

 TemperatureHumidityPressure
High104 °F (May 18, 12:50 PM)89% (May 28, 6:50 AM)30.15 "Hg (May 28, 6:50 AM)
Low63 °F (May 16, 5:50 AM)6% (May 18, 12:50 PM)29.62 "Hg (May 27, 5:50 PM)
Average77 °F64%29.88 "Hg
* Reported May 14 11:50 AM — May 29 11:50 AM, Bat Yam, Weather by CustomWeather, © 2015

Note: Actual official high and low records may vary slightly from our data, if they occured in-between our weather recording intervals... More about our weather records

Advertising

Bat Yam weather history for previous 24 hours

 ConditionsComfort  
Time TempWeatherWind HumidityBarometerVisibility
11:50 AM
Fri, May 29
75 °FScattered clouds.13 mph61%29.83 "HgN/A
10:50 AM75 °FPartly sunny.13 mph61%29.83 "HgN/A
9:50 AM77 °FPartly sunny.13 mph57%29.83 "HgN/A
8:50 AM75 °FScattered clouds.10 mph54%29.83 "HgN/A
7:50 AM73 °FPassing clouds.9 mph53%29.80 "HgN/A
6:50 AM72 °FPartly sunny.12 mph61%29.80 "HgN/A
5:50 AM72 °FPassing clouds.14 mph69%29.77 "HgN/A
10:50 PM
Thu, May 28
73 °FPassing clouds.14 mph69%29.83 "HgN/A
9:50 PM73 °FPassing clouds.14 mph74%29.83 "HgN/A
8:50 PM73 °FPassing clouds.12 mph78%29.80 "HgN/A
7:50 PM75 °FPassing clouds.9 mph74%29.77 "HgN/A
6:50 PM75 °FPassing clouds.10 mph74%29.77 "HgN/A
5:50 PM75 °FPassing clouds.10 mph74%29.77 "HgN/A
4:50 PM77 °FPassing clouds.12 mph69%29.77 "HgN/A
3:50 PM77 °FPassing clouds.12 mph74%29.77 "Hg6 mi
2:50 PM79 °FClear.13 mph70%29.77 "Hg6 mi
1:50 PM79 °FClear.12 mph70%29.77 "Hg6 mi
Weather by CustomWeather, © 2015

See weather overviewHow to use our weather pages